Weather History for Hatteras, NC

Change the Weather History Date:

Thursday, December 20, 2012

  Actual Average Record
Temperature  
Mean Temperature 57 °F 48 °F  
Max Temperature 67 °F 55 °F 71 °F (1957)
Min Temperature 47 °F 42 °F 20 °F (1975)
Degree Days  
Heating Degree Days 8 17  
Month to date heating degree days 171 291  
Since 1 July heating degree days 608 609  
Cooling Degree Days 0 0  
Month to date cooling degree days 0 0  
Year to date cooling degree days 2090 1711  
Growing Degree Days 6 (Base 50)    
Moisture  
Dew Point 49 °F    
Average Humidity 74    
Maximum Humidity 86    
Minimum Humidity 61    
Precipitation  
Precipitation T in 0.14 in 1.51 in (1957)
Month to date precipitation 2.85 2.71  
Year to date precipitation 54.10 56.48  
Snow  
Snow 0.00 in - - ()
Month to date snowfall 0.0  
Since 1 July snowfall 0.0  
Snow Depth 0.00 in    
Sea Level Pressure  
Sea Level Pressure 30.03 in    
Wind  
Wind Speed 11 mph (ESE)    
Max Wind Speed 30 mph    
Max Gust Speed 41 mph    
Visibility 10 miles    
Events Rain    
T = Trace of Precipitation, MM = Missing Value Source: NWS Daily Summary

Daily Weather History Graph

Daily Weather History Graph

Search for Another Location

Airport:

Trip Planner

Search our weather history database for the weather conditions in past years. The results will help you decide how hot, cold, wet, or windy it might be!

Date:

Astronomy

Dec. 20, 2012 Rise Set
Actual Time 7:06 AM EST 4:53 PM EST
Civil Twilight 6:38 AM EST 5:22 PM EST
Nautical Twilight 6:06 AM EST 5:53 PM EST
Astronomical Twilight 5:35 AM EST 6:24 PM EST
Moon 12:00 PM EST 12:03 AM EST
Length of Visible Light 10h 43m
Length of Day
9h 46m
First Quarter, 55% of the Moon is Illuminated
Dec 20
First Quarter
Dec 28
Full
Jan 4
Last Quarter
Jan 11
New
Jan 18
First Quarter

Hourly Weather History & Observations

Time (EST) Temp. Dew Point Humidity Pressure Visibility Wind Dir Wind Speed Gust Speed Precip Events Conditions
12:51 AM 50.0 °F 44.1 °F 80% 30.15 in 10.0 mi NE 6.9 mph - N/A   Clear
1:51 AM 50.0 °F 43.0 °F 77% 30.16 in 10.0 mi NE 6.9 mph - N/A   Clear
2:51 AM 50.0 °F 43.0 °F 77% 30.16 in 10.0 mi NE 8.1 mph - N/A   Clear
3:51 AM 48.9 °F 42.1 °F 77% 30.15 in 10.0 mi ENE 5.8 mph - N/A   Clear
4:51 AM 48.0 °F 41.0 °F 77% 30.16 in 10.0 mi ENE 4.6 mph - N/A   Clear
5:51 AM 46.9 °F 41.0 °F 80% 30.18 in 10.0 mi NE 3.5 mph - N/A   Clear
6:51 AM 46.9 °F 43.0 °F 86% 30.19 in 10.0 mi NE 4.6 mph - N/A   Clear
7:51 AM 48.9 °F 45.0 °F 86% 30.19 in 10.0 mi ENE 3.5 mph - N/A   Clear
8:51 AM 53.1 °F 44.1 °F 71% 30.19 in 10.0 mi ENE 5.8 mph - N/A   Clear
9:51 AM 55.0 °F 43.0 °F 64% 30.17 in 10.0 mi East 9.2 mph - N/A   Clear
11:51 AM 59.0 °F 46.0 °F 62% 30.10 in 10.0 mi East 8.1 mph - N/A   Clear
12:51 PM 59.0 °F 48.0 °F 67% 30.06 in 10.0 mi East 9.2 mph - N/A   Clear
1:51 PM 60.1 °F 48.9 °F 67% 30.04 in 10.0 mi East 9.2 mph - N/A   Scattered Clouds
2:51 PM 60.1 °F 51.1 °F 72% 30.01 in 10.0 mi ESE 9.2 mph - N/A   Scattered Clouds
3:51 PM 61.0 °F 54.0 °F 78% 29.99 in 10.0 mi SSE 9.2 mph - N/A   Overcast
4:51 PM 61.0 °F 54.0 °F 78% 29.96 in 10.0 mi SSE 11.5 mph - N/A   Scattered Clouds
5:51 PM 62.1 °F 55.0 °F 78% 29.94 in 10.0 mi SSE 13.8 mph - N/A   Partly Cloudy
6:51 PM 62.1 °F 55.0 °F 78% 29.92 in 10.0 mi SSE 13.8 mph - N/A   Mostly Cloudy
7:51 PM 63.0 °F 57.0 °F 81% 29.88 in 10.0 mi South 18.4 mph - N/A   Mostly Cloudy
8:51 PM 64.0 °F 57.0 °F 78% 29.85 in 10.0 mi South 18.4 mph - N/A   Clear
9:51 PM 64.9 °F 57.9 °F 78% 29.80 in 9.0 mi South 19.6 mph 28.8 mph N/A   Clear
10:51 PM 66.0 °F 57.0 °F 73% 29.75 in 9.0 mi South 25.3 mph 35.7 mph N/A   Clear
11:51 PM 66.9 °F 57.0 °F 70% 29.67 in 8.0 mi South 24.2 mph 35.7 mph 0.00 in Rain Light Rain